SCP
0 0 0 0 0 0 0 0 0 0 0 0 0 0 0 0 0 0 0 0 0 0 0 0 0 0 0 0 0 0 0 0 0 0 0 0 0 0 0 0 0 0 0 0 0 0 0 0 0
0 0 0 0 0 0 0 0 0 0 0 0 0 0 0 0 0 0 0 0 0 0 0 0 0 0 0 0 0 0 0 0 0 0 0 0 0 0 0 0 0 0 0 0 0 0 0 0 0
0 0 0 0 0 0 0 0 0 0 0 0 0 0 0 0 0 0 0 0 0 0 0 0 0 0 0 0 0 0 0 0 0 0 0 0 0 0 0 0 0 0 0 0 0 0 0 0 0
0 0 0 0 0 0 0 0 0 0 0 0 0 0 0 0 0 0 0 0 0 0 0 0 0 0 0 0 0 0 0 0 0 0 -0 -0 -0 -0 0 0 0 0 0 0 0 0 0 0 0
0 0 0 0 0 0 0 0 0 0 0 0 0 0 0 0 0 0 0 0 0 0 0 0 0 0 0 0 0 0 0 0 0 -0 -0 -0 -0 -0 0 0 0 0 0 0 0 0 0 0 0
0 0 0 0 0 0 0 0 0 0 0 0 0 0 0 0 0 0 0 0 0 0 0 0 0 0 0 0 0 0 0 0 0 -0 -0 -0 -0 -0 -0 0 0 0 -0 0 0 0 0 0 0
0 0 0 0 0 0 0 0 0 0 0 0 0 0 0 0 0 0 0 0 0 0 0 0 0 0 0 0 0 0 0 0 0 -0 -0 -0 -0 -0 -0 -0 0 0 -0 -0 0 0 0 0 0
0 0 0 0 0 0 0 0 0 0 0 0 0 0 0 0 0 0 0 0 0 0 0 0 0 0 0 0 0 0 0 0 0 0 -0 -0 -0 -0 -0 -0 0 0 -0 0 0 0 0 0 0
0 0 0 0 0 0 0 0 0 0 0 0 0 0 0 0 0 0 0 0 0 0 0 0 0 0 0 0 0 0 0 0 0 0 0 -0 -0 -0 -0 -0 0 0 0 0 0 0 0 0 0
0 0 0 0 0 0 0 0 0 0 0 0 0 0 0 0 0 0 0 0 0 0 0 0 0 0 0 0 0 0 0 0 0 0 0 0 0 -0 -0 0 0 0 0 0 0 0 0 0 0
0 0 0 0 0 0 0 0 0 0 0 0 0 0 0 0 0 0 0 0 0 0 0 0 0 0 0 0 0 0 0 0 0 0 0 0 0 0 0 0 0 0 0 0 0 0 0 0 0
0 0 0 0 0 0 0 0 0 0 0 0 0 0 0 0 0 0 0 0 0 0 0 0 0 0 0 0 0 0 0 0 0 0 0 0 0 0 0 0 0 0 0 0 0 0 0 0 0
0 0 0 0 0 0 0 0 0 0 0 0 0 0 0 0 0 0 0 0 0 0 0 0 0 0 0 0 0 0 0 0 0 0 0 0 0 0 0 0 0 0 0 0 0 0 0 0 0
0 0 0 0 0 0 0 0 0 0 0 0 0 0 0 0 0 0 0 0 0 0 0 0 0 0 0 0 0 0 0 0 0 0 0 0 0 0 0 0 0 0 0 0 0 0 0 0 0
0 0 0 0 0 0 0 0 0 0 0 0 0 0 0 0 0 0 0 0 0 0 0 0 0 0 0 0 0 0 0 0 0 0 0 0 0 0 0 0 0 0 0 0 0 0 0 0 0
0 0 0 0 0 0 0 0 0 0 0 0 0 0 0 0 0 0 0 0 0 0 0 0 0 0 0 0 0 0 0 0 0 0 0 0 0 0 0 0 0 0 0 0 0 0 0 0 0
0 0 0 0 0 0 0 0 0 0 0 0 0 0 0 0 0 0 0 0 0 0 0 0 0 0 0 0 0 0 0 0 0 0 0 0 0 0 0 0 0 0 0 0 0 0 0 0 0
0 0 0 0 0 0 0 0 0 0 0 0 0 0 0 0 0 0 0 0 0 0 0 0 0 0 0 0 0 0 0 0 0 0 0 0 0 0 0 0 0 0 0 0 0 0 0 0 0
0 0 0 0 0 0 0 0 0 0 0 0 0 0 0 0 0 0 0 0 0 0 0 0 0 0 0 0 0 0 0 0 0 0 0 0 0 0 0 0 0 0 0 0 0 0 0 0 0
0 0 0 0 0 0 0 0 0 0 0 0 0 0 0 0 0 0 0 0 0 0 0 0 0 0 0 0 0 0 0 0 0 0 0 0 0 0 0 0 0 0 0 0 0 0 0 0 0
0 0 0 0 0 0 0 0 0 0 0 0 0 0 0 0 0 0 0 0 0 0 0 0 0 0 0 0 0 0 0 0 0 0 0 0 0 0 0 0 0 0 0 0 0 0 0 0 0
0 0 0 0 0 0 0 0 0 0 0 0 0 0 0 0 0 0 0 0 0 0 0 0 0 0 0 0 0 0 0 0 0 0 0 0 0 0 0 0 0 0 0 0 0 0 0 0 0
0 0 0 0 0 0 0 0 0 0 0 0 0 0 0 0 0 0 0 0 0 0 0 0 0 0 0 0 0 0 0 0 0 0 0 0 0 0 0 0 0 0 0 0 0 0 0 0 0
0 0 0 0 0 0 0 0 0 0 0 0 0 0 0 0 0 0 0 0 0 0 0 0 0 0 0 0 0 0 0 0 0 0 0 0 0 0 0 0 0 0 0 0 0 0 0 0 0
0 0 0 0 0 0 0 0 0 0 0 0 0 0 0 0 0 0 0 0 0 0 0 0 0 0 0 0 0 0 0 0 0 0 0 0 0 0 0 0 0 0 0 0 0 0 0 0 0
0 0 0 0 0 0 0 0 0 0 0 0 0 0 0 0 0 0 0 0 0 0 0 0 0 0 0 0 0 0 0 0 0 0 0 0 0 0 0 0 0 0 0 0 0 0 0 0 0
0 0 0 0 0 0 0 0 0 0 0 0 0 0 0 0 0 0 0 0 0 0 0 0 0 0 0 0 0 0 0 0 0 0 0 0 0 0 0 0 0 0 0 0 0 0 0 0 0
0 0 0 0 0 0 0 0 0 0 0 0 0 0 0 0 0 0 0 0 0 0 0 0 0 0 0 0 0 0 0 0 0 0 0 0 0 0 0 0 0 0 0 0 0 0 0 0 0
0 0 0 0 0 0 0 0 0 0 0 0 -0 0 0 0 0 0 0 0 0 0 0 0 0 0 0 0 0 0 0 0 0 0 0 0 0 0 0 0 0 0 0 0 0 0 0 0 0
0 0 0 0 0 0 0 0 0 0 0 0 -0 0 0 0 0 0 0 0 0 0 0 0 0 0 0 0 0 0 0 0 0 0 0 0 0 0 0 0 0 0 0 0 0 0 0 0 0
Wind_Speed
11 6 3 5 6 5 2 5 3 4 3 2 2 2 3 3 4 2 0 8 6 9 10 13 16 16 15 13 12 10 8 8 7 7 7 7 6 5 4 4 3 3 4 5 6 7 7 7 8
4 3 5 6 5 0 5 5 4 4 3 4 1 1 0 1 1 1 2 7 7 11 9 10 15 16 15 14 12 10 9 8 8 7 7 7 6 5 4 4 3 4 4 4 5 6 6 6 6
3 5 5 4 4 6 5 4 4 5 6 2 0 1 2 2 1 3 4 9 8 9 8 10 16 16 15 14 12 11 9 9 8 8 7 7 7 6 5 4 4 3 3 3 4 4 4 4 4
3 5 5 3 7 7 6 4 2 7 6 2 0 1 1 1 1 2 7 10 10 8 7 9 16 16 15 14 12 11 10 9 9 8 8 7 6 5 5 4 3 3 2 2 2 2 2 3 3
4 4 1 3 8 6 5 4 3 3 4 3 1 2 2 1 2 5 9 10 11 8 6 8 15 16 15 14 13 11 10 10 9 9 8 7 6 5 4 4 3 2 1 0 1 2 2 3 4
4 4 4 7 9 5 4 3 2 3 4 4 2 2 3 1 4 5 8 9 9 9 7 7 14 14 14 14 13 11 10 10 10 9 8 7 5 4 4 4 3 2 2 2 2 3 4 5 5
5 5 5 6 6 6 6 4 4 4 5 5 4 4 3 1 5 6 6 6 6 7 6 6 7 9 12 12 12 11 10 10 9 9 7 5 3 3 3 3 3 3 3 4 4 5 6 6 7
4 5 4 5 6 7 3 2 3 5 6 3 5 5 5 3 7 6 5 5 5 5 6 6 6 6 6 7 10 10 9 8 8 7 5 3 2 1 1 1 3 5 5 5 6 6 7 7 8
4 3 7 7 7 5 2 2 3 2 2 1 3 4 3 5 9 8 4 4 5 7 6 6 6 6 6 6 7 8 8 7 6 5 5 3 1 1 2 3 4 6 6 6 7 7 7 7 6
4 6 7 5 5 3 2 2 3 4 3 2 3 2 1 5 8 9 8 9 10 11 10 8 8 7 6 6 4 4 4 4 3 3 3 2 1 1 2 4 5 5 5 5 6 7 7 6 3
5 6 2 3 3 2 3 4 3 2 4 4 4 4 2 4 6 8 8 8 11 10 10 10 10 8 7 5 4 3 2 3 3 3 3 2 2 1 1 2 3 3 4 3 4 5 4 3 3
3 3 2 2 2 3 4 4 5 5 8 5 4 4 2 5 8 9 10 9 7 7 10 10 11 9 9 6 4 4 3 3 3 3 4 3 2 1 1 1 2 2 2 2 3 3 4 4 5
3 3 3 4 6 5 6 6 6 8 9 8 7 6 6 7 8 8 7 6 6 8 9 10 11 11 10 8 5 5 5 4 4 3 4 4 3 3 2 2 2 3 3 3 3 3 4 5 5
2 3 4 4 5 4 7 10 7 10 7 8 7 9 9 9 10 8 7 8 9 10 10 10 12 12 11 9 7 5 5 4 3 3 4 5 4 4 4 4 3 4 3 4 4 4 4 4 3
1 3 6 5 6 5 5 14 13 11 9 11 10 10 11 11 10 10 10 9 9 8 8 10 11 12 12 10 8 6 5 5 4 4 5 6 5 5 5 5 4 4 4 4 4 4 4 4 5
1 2 4 4 4 6 7 18 7 7 10 13 12 11 12 12 11 11 10 9 8 6 7 8 9 11 12 9 8 6 5 5 4 5 5 7 7 7 6 5 5 4 4 4 4 4 4 5 5
2 4 4 5 4 3 8 11 4 7 9 11 10 10 11 12 12 11 10 9 7 7 6 7 8 11 10 9 7 7 6 6 5 6 6 8 8 8 7 6 4 4 5 5 4 5 4 4 6
5 4 4 4 4 4 9 13 9 9 8 10 10 10 11 12 14 10 7 7 6 5 6 6 7 9 11 9 9 8 8 7 6 6 7 9 8 8 7 6 6 5 6 5 4 4 5 3 4
1 4 6 5 6 7 12 18 13 11 12 12 11 11 12 12 11 7 5 5 5 5 6 7 9 11 11 10 9 8 7 7 6 6 9 10 9 8 7 7 6 6 6 5 5 3 5 5 5
6 10 11 9 6 8 13 23 17 14 15 16 16 15 14 11 8 6 6 5 6 6 7 8 10 10 10 8 6 6 7 7 6 6 8 9 9 7 7 8 6 5 5 6 6 5 3 4 5
9 10 9 8 7 7 12 20 15 12 17 19 18 17 15 14 12 9 8 7 6 7 8 9 10 10 10 11 11 11 8 6 5 6 6 7 8 8 8 8 7 6 5 5 5 5 4 3 3
9 7 9 9 7 7 5 13 8 8 12 16 16 15 15 14 13 10 9 8 8 7 7 9 10 11 12 13 14 16 11 8 6 5 6 8 7 7 8 8 7 6 5 5 4 4 3 3 2
7 4 6 7 8 11 8 12 15 6 12 13 13 14 15 15 14 13 12 11 8 8 8 9 11 11 11 10 13 13 11 9 9 8 10 8 6 7 7 7 6 6 5 5 5 4 3 2 1
4 2 6 6 6 14 12 12 18 9 13 11 12 14 15 15 14 12 10 10 8 8 9 10 12 11 9 10 11 14 17 16 14 10 9 6 5 5 7 7 6 5 4 4 4 3 3 2 1
6 4 3 4 8 11 7 12 19 13 11 13 15 15 14 13 12 13 15 14 14 13 12 11 13 12 10 11 11 13 16 15 14 11 9 7 5 4 5 5 5 4 4 4 3 3 2 1 1
9 10 8 7 7 6 5 15 16 14 12 13 15 13 11 11 12 15 18 17 16 16 14 14 14 13 11 12 12 11 12 9 8 8 8 7 5 5 5 5 5 4 4 3 3 2 2 1 1
7 10 8 7 7 10 11 11 13 10 12 14 15 13 12 12 13 15 16 16 17 16 15 15 15 14 12 13 13 11 10 10 10 9 8 7 6 5 6 5 4 3 3 3 2 1 2 2 2
7 4 5 8 7 10 11 12 13 12 14 14 13 13 10 11 12 14 15 15 14 13 13 13 14 15 14 13 12 11 10 11 10 9 9 7 6 5 5 5 4 3 3 3 2 2 2 3 3
11 9 9 7 7 6 10 11 4 9 12 12 12 9 11 14 15 15 14 13 14 14 14 14 14 15 13 12 12 12 11 10 10 9 8 7 6 5 5 4 3 2 2 3 2 3 4 4 5
11 12 11 9 9 7 9 16 2 7 10 8 5 7 11 14 14 14 15 15 15 15 14 14 14 14 12 12 12 12 11 10 10 9 7 7 6 5 4 3 3 2 3 3 3 4 5 5 6
Wind_Direction
333 337 41 52 50 47 260 254 250 288 278 279 264 211 187 177 176 198 127 155 145 150 163 162 156 155 154 152 148 147 148 150 146 141 142 135 129 118 106 95 85 73 51 41 38 42 51 69 82
329 356 47 57 88 244 265 249 249 250 279 306 281 134 167 261 269 156 155 167 152 154 157 156 158 158 158 155 153 153 155 156 154 150 146 139 136 129 114 98 79 71 61 50 44 41 48 53 61
5 48 75 81 148 191 226 227 228 281 289 284 158 145 192 222 222 199 183 155 146 153 153 159 161 162 161 160 160 161 162 162 161 156 151 148 144 137 123 100 83 77 71 60 53 47 47 42 37
64 48 60 106 224 220 220 236 272 319 331 332 249 191 243 247 245 186 141 147 147 152 152 163 164 166 164 165 167 168 169 170 168 164 160 161 158 153 136 124 114 111 101 79 58 38 21 7 352
63 82 104 235 240 238 240 264 285 303 301 306 276 208 263 6 64 120 140 149 155 156 157 167 168 170 169 170 171 173 175 176 174 174 174 176 173 169 157 156 155 156 157 97 5 346 336 324 317
69 88 158 230 246 255 249 237 272 273 269 279 205 194 265 83 125 148 150 154 161 162 161 169 174 173 173 175 176 178 179 181 181 184 185 187 185 180 177 186 192 203 231 279 323 326 320 315 311
125 136 199 220 247 257 248 205 214 239 257 250 188 175 276 254 160 156 149 146 155 161 163 171 176 174 175 178 180 181 182 185 187 191 193 194 188 194 198 212 224 249 278 304 316 316 315 313 314
140 141 206 216 225 253 243 217 227 214 243 238 160 171 233 222 138 133 129 137 159 168 174 174 174 170 172 177 180 181 182 185 189 192 181 166 154 160 272 284 272 279 293 306 313 317 318 323 326
106 142 216 209 199 242 240 237 283 278 250 258 210 214 241 129 120 121 131 161 181 190 189 181 178 173 168 170 181 179 180 185 187 186 172 147 101 39 350 328 308 299 302 311 320 332 344 354 354
149 211 226 197 194 223 306 291 307 340 332 304 288 277 99 133 142 155 173 188 196 199 197 192 189 182 171 178 168 166 168 170 163 151 147 129 118 27 350 342 344 338 342 349 0 14 18 21 7
187 225 228 229 244 276 299 295 289 297 279 249 265 277 186 172 174 184 193 197 202 200 197 196 195 188 180 176 162 162 158 157 161 162 157 141 120 61 20 10 2 16 30 32 28 32 29 27 20
217 247 255 282 322 305 284 287 285 231 237 267 288 298 260 209 203 205 207 210 200 195 199 196 194 192 189 180 171 167 165 165 172 174 165 149 134 116 76 53 36 42 46 48 42 42 36 34 29
240 265 283 293 299 281 278 262 262 255 259 281 292 293 270 250 239 233 227 222 205 208 205 197 192 194 190 183 176 174 176 176 176 167 164 155 143 132 111 87 70 60 58 55 49 46 43 34 24
272 296 302 289 286 281 266 268 250 252 251 265 267 266 259 248 244 247 243 234 219 215 209 196 194 193 188 186 180 174 171 164 156 157 158 149 138 131 119 97 76 61 57 57 56 53 44 30 14
304 305 301 258 239 242 256 267 239 244 244 252 252 251 254 249 241 236 233 230 225 220 207 195 194 187 185 184 177 165 159 153 152 148 140 134 129 124 113 98 79 62 59 63 56 49 42 28 12
307 269 275 275 225 219 206 259 257 227 227 241 242 241 245 249 240 235 237 236 233 218 204 196 189 182 180 173 160 149 145 141 135 127 123 119 114 110 102 94 82 70 63 61 60 36 35 20 3
242 249 249 285 264 258 223 261 268 234 231 245 246 244 243 248 247 239 234 230 225 210 194 183 177 171 166 152 137 125 121 115 113 109 108 106 103 102 99 92 85 76 65 50 53 45 36 18 354
221 226 239 250 304 320 276 270 282 292 275 260 256 250 247 246 249 245 235 223 211 191 176 165 155 151 141 131 120 111 102 97 95 98 101 101 99 100 99 90 80 73 67 51 45 52 39 24 346
244 256 266 268 304 307 276 277 271 266 267 263 258 253 250 249 252 248 229 203 181 171 161 154 146 147 145 142 136 127 117 109 97 92 98 97 97 94 95 94 79 71 71 59 44 44 34 17 358
248 266 273 280 265 271 279 279 272 249 251 250 249 250 248 248 249 232 207 188 184 174 162 151 150 151 149 142 127 116 116 105 96 93 90 94 98 97 95 93 87 78 77 61 46 44 44 19 21
237 243 255 265 302 274 286 284 259 235 231 239 239 239 238 234 234 224 201 194 183 178 169 156 149 143 135 129 119 114 105 103 101 98 89 87 93 93 95 91 88 78 76 72 60 51 61 31 11
251 227 236 253 264 271 236 286 274 226 239 240 239 232 231 229 222 212 193 188 185 178 159 145 141 139 139 139 141 142 140 134 125 121 111 97 92 93 89 87 85 80 76 73 62 61 60 66 26
225 224 228 238 246 263 232 264 278 209 244 244 238 232 228 223 214 204 191 183 170 155 148 141 136 137 141 142 145 135 124 118 121 117 109 100 88 83 84 83 82 79 77 75 68 63 59 69 77
209 287 277 246 244 260 225 223 270 229 229 237 235 229 225 218 209 195 171 152 145 141 139 140 138 136 137 138 139 136 133 134 132 127 119 108 96 81 79 81 79 78 76 72 68 66 62 60 60
177 203 266 251 228 249 185 211 249 244 220 225 234 234 225 212 192 172 160 158 155 152 149 145 142 137 134 132 130 135 135 136 135 132 127 120 106 91 81 82 79 74 75 74 65 55 38 39 24
188 189 209 228 239 271 224 234 251 249 233 231 235 235 223 202 184 174 169 163 160 156 152 148 143 137 133 129 125 124 124 121 121 120 119 113 109 107 99 90 83 76 68 62 49 35 354 357 309
187 209 217 254 264 268 253 259 277 255 247 240 238 232 217 193 179 172 165 161 157 155 153 149 142 135 130 127 123 118 116 117 116 111 105 104 106 106 97 90 82 68 56 42 26 356 326 312 280
209 186 186 220 251 258 262 256 260 278 263 247 235 225 205 178 167 162 159 154 150 145 139 136 137 133 128 126 125 120 114 114 115 111 107 104 99 97 98 87 75 56 37 18 2 326 310 303 285
197 211 217 228 235 256 280 268 240 288 285 263 243 213 179 167 162 156 149 141 135 133 134 133 131 128 126 122 119 118 114 112 109 106 106 106 102 99 94 87 71 46 22 357 342 318 305 300 292
205 212 211 233 242 240 268 275 259 302 302 280 238 178 160 153 147 142 139 136 135 135 134 132 132 128 125 122 119 116 115 111 108 106 106 106 102 96 94 85 66 33 4 338 324 310 308 297 293